Location: ???????
(55.9142°N, 37.8256°E)
Time: 03:32:57
(UTC+00:00)

NOSS 3-4 (C) - Visible Passes

Search period start: 19 July 2024 00:00
Search period end: 29 July 2024 00:00
Orbit: 814 x 1397 km, 63.4° (Epoch: 04 June)

Date Brightness Start Highest point End Pass type
(mag) Time Alt. Az. Time Alt. Az. Time Alt. Az.
19 Jul 5.3 22:59:07 10° SE 23:02:25 16° ESE 23:05:52 10° ENE visible
21 Jul 4.0 00:01:57 10° SSW 00:07:14 45° SE 00:13:04 10° NE visible
21 Jul 4.5 23:18:00 11° S 23:22:38 31° ESE 23:27:52 10° ENE visible
22 Jul 4.9 22:34:25 11° SSE 22:38:09 21° ESE 22:42:26 10° ENE visible
23 Jul 3.4 00:22:20 10° SW 00:27:57 77° SE 00:34:16 10° NE visible
23 Jul 5.2 21:51:16 10° SE 21:53:46 13° ESE 21:56:22 10° E visible
23 Jul 3.7 23:38:13 13° SSW 23:43:09 55° SE 23:49:12 10° NE visible
24 Jul 4.1 22:54:34 16° S 22:58:28 38° ESE 23:04:05 10° ENE visible
25 Jul 4.5 22:10:53 17° SSE 22:13:55 26° ESE 22:18:48 10° ENE visible
25 Jul 3.4 23:58:19 10° SW 00:03:59 90° SE 00:10:23 10° NE visible
26 Jul 4.9 21:27:11 14° SE 21:29:28 17° ESE 21:33:11 10° ENE visible
26 Jul 3.4 23:14:35 16° SSW 23:19:06 67° SE 23:25:20 10° NE visible
27 Jul 5.3 20:44:06 10° ESE 20:45:09 10° ESE 20:46:14 10° E visible
27 Jul 3.7 22:30:51 21° S 22:34:20 48° SE 22:40:15 10° NE visible
28 Jul 3.8 00:19:23 10° WSW 00:25:05 63° NNW 00:31:34 10° NE visible
28 Jul 4.2 21:47:04 22° SSE 21:49:43 33° ESE 21:55:04 10° ENE visible
28 Jul 3.5 23:34:28 11° WSW 23:40:02 79° NW 23:46:29 10° NE visible
